Other Public Products
Issued by NWS Grand Forks, ND

Home | Current Version | Previous Version | Graphics & Text | Print | Product List | Glossary On
Versions: 1 2 3 4 5 6 7 8 9 10 11 12 13 14 15 16 17 18 19 20 21 22 23 24 25 26 27 28 29 30 31 32 33 34 35 36 37 38 39 40 41 42 43 44 45 46 47 48 49 50
000
FPUS83 KFGF 252010
OPUFGF
PRAIRIE TO PINES WEATHER ROUNDUP
NATIONAL WEATHER SERVICE EASTERN NORTH DAKOTA/GRAND FORKS ND
200 PM CST THU DEC 25 2014

 **SATELLITE DATA USED TO AUGMENT SKY COVER AT AUTOMATED STATIONS**
 *****  WEATHER ACROSS EASTERN NORTH DAKOTA  *****

CITY           SKY/WX    TMP DP  RH WIND       PRES   REMARKS
GRAND FORKS    CLOUDY    28  23  81 N12       29.79R WCI  18
GRAND FORKS AF CLOUDY    29  28  99 N8        29.80R WCI  21
GRAND CITY NWS   N/A     28 N/A N/A N10         N/A  WCI  19
BUXTON         NOT AVBL
DEVILS LAKE    CLOUDY    27  21  80 NW12      29.78R WCI  16
FARGO          CLOUDY    30  25  81 NW10      29.79R WCI  21
WAHPETON ARPT  CLOUDY    30  25  80 N9        29.78S WCI  22
$$

 *****  WEATHER ACROSS CENTRAL AND WESTERN NORTH DAKOTA  *****

CITY           SKY/WX    TMP DP  RH WIND       PRES   REMARKS
JAMESTOWN      CLOUDY    28  22  78 NW12      29.78R WCI  18
BISMARCK       CLOUDY    28  21  75 NW14      29.83R WCI  17
MINOT          CLOUDY    28  22  78 NW17      29.81R WCI  16
MINOT AFB      CLOUDY    26  26  98 NW17      29.81R WCI  14
GARRISON         N/A     28  22  78 NW17      29.81R WCI  16
WILLISTON      CLOUDY    26  19  74 NW16      29.88R WCI  14
DICKINSON      CLOUDY    24  18  77 NW20      29.81R WCI  10
HETTINGER      CLOUDY    26  19  74 N14G23    29.81R WCI  14
$$

 *****  OTHER OBSERVATIONS NORTHEAST NORTH DAKOTA  *****

CITY           SKY/WX    TMP DP  RH WIND       PRES   REMARKS
WALHALLA         N/A     27  27 100 N10       29.80R WCI  17
LANGDON        CLOUDY    25  23  93 N9        29.77R WCI  15
CAVALIER       CLOUDY    27  25  93 NW12      29.80R WCI  16
GRAFTON        NOT AVBL
CANDO          CLOUDY    27  23  86 N8G16     29.79R WCI  18
FORT TOTTEN    NOT AVBL
ROLLA          CLOUDY    25  25 100 NW13      29.79R WCI  13
RUGBY          CLOUDY    27  25  93 NW15      29.80R WCI  15
 ***** THE ABOVE OBSERVATIONS ARE NON NWS ARE NOT QUALITY
        CONTROLLED AND MAY MIS-REPORT RAIN FOR SNOW...
$$

 *****  OTHER OBSERVATIONS SOUTHEAST NORTH DAKOTA *****

CITY           SKY/WX    TMP DP  RH WIND       PRES   REMARKS
COOPERSTOWN    NOT AVBL
VALLEY CITY    CLOUDY    27  27 100 NW14      29.78R WCI  15
OAKES            N/A     27  27 100 N15       29.79R WCI  15
GWINNER        CLOUDY    28  28 100 N3        29.79S
BUFFALO        NOT AVBL
WYNDMERE         N/A     28  25  86 NW10        N/A  WCI  19
 ***** THE ABOVE OBSERVATIONS ARE NON NWS ARE NOT QUALITY
       CONTROLLED AND MAY MIS-REPORT RAIN FOR SNOW...
$$

  *****  WEATHER ACROSS NORTHERN MINNESOTA  *****

CITY           SKY/WX    TMP DP  RH WIND       PRES   REMARKS
FLAG ISLAND    CLOUDY    28  25  86 NW12      29.70R WCI  18
WARROAD        CLOUDY    28  23  80 NW9       29.73R WCI  20
ROSEAU         CLOUDY    28  23  80 NW9       29.74R WCI  20
HALLOCK          N/A     28  25  86 NW12      29.78R WCI  18
THF RVR FALLS  CLOUDY    27  21  80 NW12      29.76R WCI  16
HALSTAD          N/A     30  25  81 N12         N/A  WCI  20
FOSSTON        CLOUDY    27  25  93 W6        29.75R WCI  20
BAUDETTE       CLOUDY    28  22  78 NW8       29.71R WCI  20
WASKISH        CLOUDY    30  27  86 CALM      29.72R
CROOKSTON      CLOUDY    28  23  80 N12G18    29.79R WCI  18
$$
  *****  WEATHER ACROSS CENTRAL AND WEST MINNESOTA  *****

CITY           SKY/WX    TMP DP  RH WIND       PRES   REMARKS
BEMIDJI        CLOUDY    29  25  84 W8        29.73R WCI  21
PARK RAPIDS    CLOUDY    31  22  69 NW8       29.72R WCI  23
WADENA         CLOUDY    28  25  86 N5        29.73R WCI  23
DETROIT LAKES  CLOUDY    30  27  86 NW9       29.76R WCI  22
MOORHEAD       CLOUDY    30  28  93 NW8       29.79R WCI  23
FERGUS FALLS   CLOUDY    28  27  93 NW9       29.79R WCI  20
ELBOW LAKE     CLOUDY    28  26  90 N12       29.75R WCI  18
MORRIS MN      CLOUDY    28  27  93 N9        29.74S WCI  20
STAPLES        CLOUDY    28  27  93 NW6       29.74R WCI  22
WHEATON        CLOUDY    27  25  93 NW10      29.78S WCI  17
$$
  *****  WEATHER ELSEWHERE ACROSS MINNESOTA  *****

CITY           SKY/WX    TMP DP  RH WIND       PRES   REMARKS
DULUTH         CLOUDY    32  26  78 W13       29.70R WCI  22
INTRNTL FALLS  CLOUDY    31  25  78 W12       29.69R WCI  22
ELY            CLOUDY    30  27  86 W7        29.67R WCI  23
CLOQUET        CLOUDY    32  27  80 W7        29.72R
BRAINERD       CLOUDY    32  27  81 NW6       29.73R
HIBBING        CLOUDY    32  24  72 NW7       29.70R
ALEXANDRIA     CLOUDY    30  27  88 N8        29.73R WCI  22
SAINT CLOUD    CLOUDY    35  29  78 S3        29.74R
MINNEAPOLIS    CLOUDY    34  28  79 S6        29.76R
$$

  *****  WEATHER ACROSS SOUTH DAKOTA  *****

CITY           SKY/WX    TMP DP  RH WIND       PRES   REMARKS
SIOUX FALLS    CLOUDY    36  29  75 NE17      29.64F
BROOKINGS      NOT AVBL
WATERTOWN      LGT SNOW  31  27  85 NE8       29.70S FOG     WCI  23
HURON          LGT SNOW  29  26  89 N17       29.72S VSB 1   WCI  17
SISSETON         N/A     27  25  92 N14       29.76R WCI  16
ABERDEEN       CLOUDY    30  24  78 N17       29.78R WCI  18
MITCHELL       CLOUDY    33  31  92 N16       29.68S WCI  23
PIERRE         CLOUDY    30  27  88 N18       29.74R WCI  18
MOBRIDGE       CLOUDY    30  25  81 N12       29.76S WCI  20
RAPID CITY     LGT SNOW  26  23  88 N18       29.75R VSB 3/4 WCI  13
$$

  *****  SOME WEATHER IN NEARBY STATES *****

CITY           SKY/WX    TMP DP  RH WIND       PRES   REMARKS
GLASGOW MT     CLOUDY    24  16  71 NW14      29.93R WCI  12
GREAT FALLS MT CLOUDY    24  21  88 W3        29.92F
CHEYENNE WY    LGT SNOW  27  22  81 N16       29.51S WCI  15
SCOTTSBLUFF NE HVY SNOW  29  27  92 N13       29.60R VSB 1/4 WCI  19
OMAHA NE       MOSUNNY   48  31  51 S18G28    29.60F
DES MOINES IA  MOSUNNY   49  32  52 S17       29.72F
DAVENPORT IA   SUNNY     45  31  58 S17       29.87F
CHICAGO IL     PTSUNNY   41  31  67 S14       29.95R
EAU CLAIRE WI  CLOUDY    33  28  81 S3        29.78R
LA CROSSE WI   CLOUDY    39  30  70 S8        29.80S
$$

  *****  SOME NATIONAL WEATHER *****

CITY           SKY/WX    TMP DP  RH WIND       PRES   REMARKS
LA GUARDIA NY  PTSUNNY   51  28  41 W23G31    29.86R
RALEIGH NC     SUNNY     56  32  40 VRB6      30.09R
ATLANTA GA     SUNNY     51  34  52 W8        30.16F
NEW ORLEANS LA MOSUNNY   57  37  47 NE7       30.23F
OKLAHOMA CITY  PTSUNNY   59  25  27 S29G39    29.75F
ALBUQUERQUE NM MOSUNNY   49  12  22 SW9       29.64F
SALT LAKE CITY SNOW      29  26  89 W12       29.68R VSB 1/2 WCI  19
LOS ANGELES CA MOSUNNY   62  24  23 N17G26    29.85F
BOISE ID       SUNNY     35  25  66 NW24      29.91S WCI  23
SEATTLE WA     PTSUNNY   44  39  82 W6        30.21S
$$

*** WEATHER ACROSS MANITOBA...SASKATCHEWAN AND ONTARIO ***
                ***ONTARIO***

CITY           SKY/WX    TMP DP  RH WIND       PRES   REMARKS
GERALDTON      CLOUDY    28  25  86 W6        29.61R WCI  22
THUNDER BAY    CLOUDY    36  30  80 W6        29.67R
SIOUX LOOKOUT  NOT AVBL
TORONTO        PTSUNNY   39  30  70 W21G28    29.87R
BIG TROUT LK   FLURRIES  21  21 100 W6        29.60R WCI  14
PICKLE LAKE    FLURRIES  28  25  86 CALM      29.57R
DRYDEN         FLURRIES  28  28 100 W12       29.63R WCI  18
KENORA         FLURRIES  27  25  93 NW8       29.67R WCI  18
$$
                *** MANITOBA***

CITY           SKY/WX    TMP DP  RH WIND       PRES   REMARKS
BRANDON        CLOUDY    25  21  86 NW9       29.82R WCI  15
DAUPHIN        CLOUDY    25  18  74 NW9       29.84R WCI  15
ISLAND LAKE    NOT AVBL
PILOT MOUND    NOT AVBL
THE PAS        FLURRIES   7   3  85 NW17G23   29.89R WCI -12
THOMPSON       NOT AVBL
WINNIPEG       CLOUDY    27  23  86 NW15      29.79R WCI  15
CHURCHILL      LGT SNOW   5   3  92 NW16      29.78R VSB 1   WCI -14
GILLAM         FLURRIES  19  18  93 VRB2      29.70R
$$
                ***SASKATCHEWAN***

CITY           SKY/WX    TMP DP  RH WIND       PRES   REMARKS
ESTEVAN        FLURRIES  23  18  80 NW20      29.87R WCI   8
KINDERSLEY     CLOUDY     9   3  78 W8        29.98R WCI  -4
LLOYDMINSTER   CLOUDY     7   5  92 NW7       29.95S WCI  -5
PRINCE ALBERT  PTSUNNY   -2  -8  78 NW8       29.99R WCI -17
REGINA         FLURRIES  12   7  79 NW18      29.93R WCI  -5
YORKTON          N/A     18  14  86 NW14G22   29.86R WCI   4
N. BATTLEFORD  CLOUDY     3   0  85 NW12      30.02R WCI -13


USA.gov is the U.S. government's official web portal to all federal, state and local government web resources and services.